Location: Oroua River
(40.4333°S, 175.4333°E)
Time: 03:11:16
(UTC+00:00)

Daily predictions for brighter satellites

Satellite Brightness Start Highest point End
(mag) Time Altitude Azimuth Time Altitude Azimuth Time Altitude Azimuth
Aureole 1 Rocket 3.9 07:26:43 10° SSW 07:33:27 69° ESE 07:38:42 10° NNE
SL-24 DEB 4.4 07:33:21 10° N 07:37:56 78° W 07:42:33 10° S
Cosmos 2074 Rocket 4.1 07:32:59 10° N 07:39:18 87° E 07:45:41 10° S
Cosmos 724 4.5 07:33:29 10° NNW 07:39:42 87° ENE 07:45:56 10° SSE
BREEZE-M DEB (TANK) 3.7 07:26:48 10° WNW 07:40:21 87° NNE 07:44:24 10° ESE
Cosmos 2278 Rocket 3.1 07:35:56 10° S 07:41:07 34° ESE 07:46:15 10° ENE
CZ-4 R/B 3.1 07:38:48 10° SE 07:41:15 15° E 07:43:40 10° NE
Cosmos 2184 Rocket 4.1 07:36:15 10° N 07:42:26 89° E 07:48:43 10° S
Lacrosse 5 rocket 2.5 07:42:21 10° NNE 07:44:36 16° ENE 07:46:56 10° E
Cosmos 1943 Rocket 3.4 07:40:07 10° S 07:44:48 26° SE 07:49:26 10° ENE
SL-16 R/B 4.0 07:46:06 10° ENE 07:47:08 10° E 07:48:10 10° E
COSMOS 2428 3.0 07:41:53 10° NNW 07:47:34 78° WSW 07:53:20 10° SSE
Cosmos 2237 Rocket 2.6 07:43:08 10° N 07:48:27 42° ENE 07:53:49 10° SE
Cosmos 1726 Rocket 4.2 07:44:57 10° S 07:49:12 39° ESE 07:53:24 10° NNE
SeaSat 1 3.1 07:45:55 10° NE 07:50:31 41° ESE 07:55:09 10° SSW
Cosmos 841 Rocket 3.6 07:45:35 10° NNW 07:50:52 88° WSW 07:56:12 10° SSE
Cosmos 1378 4.1 07:50:44 10° SSE 07:53:03 20° ESE 07:54:48 13° ENE
Cosmos 2058 3.3 07:49:49 10° NNE 07:53:35 40° E 07:57:25 10° SSE
NOSS 0 Rocket 3.9 07:48:12 10° NNW 07:54:19 73° ENE 08:00:34 10° SSE
USA 267 3.5 07:48:12 10° NE 07:54:47 71° NW 08:01:25 10° SW
ACS3 Solar Sail 2.4 07:50:46 10° SSE 07:56:39 38° E 08:02:29 10° NNE
Cosmos 1892 Rocket 3.8 07:53:05 10° NNE 07:57:14 46° E 08:01:29 10° SSE
Cosmos 1898 Rocket 3.6 07:53:23 10° SSW 07:58:47 85° WNW 08:04:07 10° NNE
ARGOS Delta rocket 4.1 07:55:28 10° S 07:59:54 65° WSW 08:04:16 10° NNW
Cosmos 1610 Rocket 4.5 07:56:39 10° N 08:02:49 81° E 08:09:09 10° S
Iridium 51 4.4 07:59:24 10° N 08:03:38 83° E 08:07:47 10° S
Meteor PRIRODA 4.4 08:03:00 10° SE 08:05:48 25° E 08:07:38 16° NE
CZ-4B R/B 4.2 08:02:58 10° SE 08:06:26 23° E 08:08:46 15° NE
Cosmos 1461 3.6 08:09:48 10° N 08:13:30 30° ENE 08:17:13 10° SE
Okean O Rocket 3.6 08:12:52 10° ESE 08:14:34 12° E 08:14:35 12° E
Helios 1B rocket 2.2 08:12:34 10° SSE 08:16:28 89° ENE 08:20:16 10° NNW
USA 186 2.8 08:16:36 10° SE 08:19:11 24° E 08:19:37 23° ENE
Cosmos 858 Rocket 4.5 08:17:07 10° SSW 08:22:27 86° ESE 08:26:54 15° NNE
SJ-6B 2.6 08:19:22 10° SSE 08:23:07 79° ENE 08:26:53 10° N
DELTA 2 DEB (DPAF) 4.1 08:20:31 10° N 08:24:38 73° WNW 08:28:49 10° SSW
Cosmos 1980 3.8 08:21:36 10° NNW 08:27:16 86° WSW 08:33:01 10° SSE
CZ-4C R/B 3.5 08:27:31 26° NE 08:29:05 44° ESE 08:32:35 10° S
YAOGAN 1 4.2 08:26:41 10° S 08:30:41 37° WSW 08:34:40 10° NW
Lacrosse 5 3.5 08:27:38 10° WNW 08:32:21 36° SW 08:37:05 10° SSE
Cosmos 1500 3.1 08:32:28 30° NNE 08:33:39 46° E 08:36:51 10° SSE
SL-8 Rocket 4.0 08:29:05 10° N 08:35:19 69° E 08:41:34 10° SSE
Hubble Space Telescope 2.7 08:34:27 10° NNW 08:36:11 14° N 08:36:11 14° N
Meteor 2-3 Rocket 3.9 08:33:10 15° NNE 08:37:38 50° E 08:43:09 10° SSE
SPOT 1/Viking Rocket 3.9 08:36:48 10° S 08:41:59 68° WSW 08:47:05 10° NNW
Cosmos 1515 3.4 08:40:34 10° S 08:43:57 75° W 08:45:33 28° N
Resurs 01 Rocket 1.5 08:42:51 10° SSE 08:47:19 68° E 08:50:19 20° N
CARTOSAT-1 3.4 08:43:20 10° SSE 08:47:40 74° ENE 08:50:42 19° N
Cosmos 2058 Rocket 3.1 08:43:40 10° S 08:48:16 90° E 08:50:53 25° N
Cosmos-2242 3.4 08:46:08 10° S 08:50:21 45° ESE 08:51:35 35° ENE
Cosmos 1666 2.2 08:49:40 48° NNE 08:50:24 66° E 08:53:41 10° SSE
SPOT 5 4.2 08:50:12 10° SE 08:52:47 20° E 08:52:47 20° E
Genesis I 4.1 08:52:17 10° S 08:55:07 27° SE 08:55:20 26° ESE
Cosmos 1814 Rocket 4.4 08:55:58 10° NNW 09:01:18 67° WSW 09:06:41 10° SSE
CZ-4B R/B 3.1 08:56:38 10° SSE 09:01:57 60° ENE 09:04:35 29° N
H-2A R/B (2) 3.8 09:04:47 10° NW 09:05:30 10° NNW 09:05:34 10° NNW
Cosmos 1758 Rocket 3.6 09:04:31 42° NNE 09:05:47 60° E 09:10:16 10° SSE
SL-8 R/B 4.2 09:02:25 10° SW 09:07:10 54° SSE 09:09:13 31° E
SAR-Lupe-2 3.7 09:03:41 10° S 09:07:18 73° WSW 09:08:43 34° NNW
Cosmos 1727 Rocket 4.2 09:05:53 10° S 09:12:00 53° E 09:14:09 37° NE
Meteor 2-13 Rocket 4.4 09:06:58 10° S 09:13:08 84° W 09:16:29 29° N
CZ-4 R/B 2.7 09:11:58 10° S 09:15:49 40° WSW 09:19:38 10° NW
CZ-4B R/B 4.3 09:12:18 10° S 09:17:14 52° WSW 09:22:14 10° NNW
BREEZE-M DEB (TANK) 3.2 09:15:16 10° WSW 09:16:35 31° WSW 09:16:35 31° WSW
CSL-04 Rocket 3.5 09:13:18 10° SSE 09:18:40 86° ENE 09:21:33 29° NNW
ASTEX 1 4.3 09:14:20 10° S 09:19:03 46° W 09:23:21 12° NNW
Lacrosse 5 rocket 2.0 09:18:44 10° WNW 09:22:11 46° SW 09:25:47 10° SSE
Cosmos 1125 Rocket 3.8 09:17:22 10° S 09:22:28 49° ESE 09:23:27 43° E
Cosmos 1570 Rocket 3.9 09:21:29 40° N 09:23:24 70° ENE 09:28:46 10° SSE
Cosmos 1238 Rocket 2.7 09:19:51 10° S 09:24:21 87° E 09:24:41 75° NNE
Cosmos 1782 4.0 09:21:28 10° SSW 09:25:00 35° W 09:26:18 27° NW
Cosmos 2278 Rocket 3.5 09:20:02 10° SW 09:25:07 34° WNW 09:28:22 19° NNW
Okean 1-7 Rocket 3.5 09:24:47 61° NNE 09:25:28 73° E 09:30:05 10° SSE
Cosmos 1933 3.7 09:23:29 10° SSW 09:27:26 58° W 09:28:04 50° NW
SeaSat 1 4.1 09:25:19 17° NNW 09:27:59 26° WNW 09:32:07 10° SW
Cosmos 1943 Rocket 2.9 09:23:25 10° SW 09:28:43 45° WNW 09:31:05 28° NNW
Cosmos 1656 Rocket 4.2 09:24:37 10° SSW 09:30:08 47° ESE 09:31:22 41° E
SL-16 R/B 2.1 09:26:41 24° NNW 09:30:16 86° ENE 09:36:03 10° SSE
Cosmos 1340 Rocket 3.9 09:26:44 10° SSW 09:30:20 36° W 09:31:15 31° NW
Cosmos 1602 4.3 09:33:27 44° SSE 09:33:27 44° SSE 09:36:00 10° SSE
Cosmos 2237 Rocket 4.2 09:27:44 10° WNW 09:32:37 29° SW 09:37:33 10° S
Cosmos 2369 Rocket 3.0 09:30:18 10° S 09:35:34 36° ESE 09:36:41 33° E
NOSS 3-4 (A) 4.1 09:29:56 10° SW 09:36:24 47° WNW 09:38:35 33° NNW
NOSS 3-4 (C) 4.1 09:30:02 10° SW 09:36:31 47° WNW 09:38:40 34° NNW
Meteor 1-26 Rocket 4.3 09:30:25 10° S 09:36:33 89° E 09:38:19 49° N
ACS3 Solar Sail 3.4 09:34:37 10° S 09:40:15 35° WSW 09:45:53 10° NW
MOS 1 Rocket 3.5 09:35:32 10° SSE 09:41:00 87° ENE 09:42:16 54° N
Landsat 5 3.5 09:47:26 67° SSW 09:47:26 67° SSW 09:50:51 10° SSW
Cosmos 2208 Rocket 3.8 09:47:34 67° N 09:48:17 85° ENE 09:53:34 10° SSE
CZ-4C R/B 4.3 09:51:31 23° E 09:51:31 23° E 09:55:48 10° ESE
Cosmos 2221 3.0 09:46:41 10° S 09:50:11 49° SE 09:50:11 49° SE
Okean O Rocket 2.0 09:46:49 10° S 09:51:11 60° WSW 09:51:55 51° WNW
SL-24 R/B - RUBIN 2 4.1 09:49:53 10° SW 09:54:53 64° WNW 09:55:25 61° NNW
Cosmos 1934 Rocket 3.8 10:03:05 66° NE 10:03:40 71° E 10:09:48 10° SSE
Okean-O 2.8 10:00:05 10° S 10:04:20 70° SW 10:04:20 70° SW
MOS 1 4.4 10:04:13 10° S 10:09:57 74° WSW 10:11:11 55° NW
CZ-2C R/B 4.0 10:16:42 67° WSW 10:16:42 67° WSW 10:21:03 10° SSW
Ariane Rocket 4.1 10:11:25 10° SSE 10:14:51 34° ESE 10:14:51 34° ESE
Cosmos 2150 Rocket 4.0 10:12:09 10° SSW 10:17:12 72° SE 10:17:12 72° SE
Terra 2.2 10:16:21 10° SSE 10:20:15 59° SSE 10:20:15 59° SSE
ATLAS 2AS CENTAUR R/B 4.4 10:15:29 10° SSW 10:21:34 27° SE 10:25:42 17° E
Meteor 2-6 Rocket 4.3 10:21:51 10° SSW 10:27:20 65° W 10:27:22 65° W
SPOT 5 4.0 10:27:37 10° S 10:31:34 34° WSW 10:31:54 33° W
IRS-1C Rocket 4.1 10:26:28 10° SSE 10:31:22 75° S 10:31:22 75° S
Cosmos 1943 3.2 10:32:45 75° SSE 10:32:45 75° SSE 10:37:56 10° SSE
ERS-1 Rocket 3.3 10:29:21 10° S 10:34:13 64° WSW 10:34:13 64° WSW
Meteor 1-10 Rocket 4.2 10:29:21 10° S 10:34:43 75° SSE 10:34:43 75° SSE
SPOT 3 Rocket 4.2 10:30:48 10° SSE 10:34:42 48° SE 10:34:42 48° SE
Cosmos 2123 Rocket 4.0 10:30:58 10° SSW 10:37:16 69° W 10:37:45 66° WNW
Meteor 1-27 Rocket 4.2 10:34:19 10° S 10:39:11 51° SE 10:39:11 51° SE
Gbstr 26 Del rocket 4.0 10:35:52 10° SW 10:40:29 50° S 10:40:29 50° S
Cosmos 2263 4.3 10:43:15 10° SSW 10:48:33 72° SW 10:48:33 72° SW
Meteor 1-25 Rocket 4.5 10:54:15 65° SSE 10:54:15 65° SSE 10:59:08 10° SSE
BREEZE-M DEB (TANK) 4.1 10:56:57 63° NNW 10:58:17 77° NE 11:23:09 10° ESE
Cosmos 1605 Rocket 4.1 11:00:43 71° W 11:00:55 72° W 11:07:24 10° S
Cosmos 2369 Rocket 3.5 11:14:26 10° SW 11:18:27 30° W 11:18:27 30° W
Cosmos 1603 4.3 11:33:09 51° SW 11:33:09 51° SW 11:38:31 10° SSE
CZ-4C R/B 3.0 11:36:29 67° NW 11:37:46 81° SW 11:45:15 10° SSE
Cosmos 2173 Rocket 4.1 11:42:35 72° SSE 11:42:35 72° SSE 11:48:22 10° S
H-2A R/B 3.9 11:54:28 29° SSE 11:54:28 29° SSE 11:56:47 10° S
Terra 4.5 11:56:45 10° SW 11:57:58 11° WSW 11:58:56 10° WSW
